This demonstration page uses our WeatherBlox Daily Observations layout. Learn more.

Left ArrowRight Arrow

Hourly Observations for May 25, 2020

Temp ( °F °C ) Dew Point ( °F °C ) Humidity (%) Winds ( mph kmh ) Pressure ( in mb ) Visibility ( mi km ) Precip ( " mm )
12:52 am 00:52 Clear 68 20 65 18.3 90 90 SE 9 15 29.81 1009 10 16 0.00 0.00
1:44 am 01:44 Mostly Cloudy 68 20 65 18.3 90 90 SSE 8 13 29.84 1011 10 16 0.00 0.00
1:52 am 01:52 Mostly Cloudy 68 20 66 18.9 93 93 SSE 8 13 29.84 1011 10 16 0.00 0.00
2:07 am 02:07 Partly Cloudy 68 20 65 18.3 90 90 SSE 12 19 29.84 1011 10 16 0.00 0.00
2:52 am 02:52 Clear 68 20 66 18.9 93 93 SSE 8 13 29.84 1011 10 16 0.00 0.00
3:52 am 03:52 Clear 67 19.4 66 18.9 97 97 SE 8 13 29.85 1011 10 16 0.00 0.00
4:52 am 04:52 Mostly Clear 66 18.9 65 18.3 96 96 SE 7 11 29.85 1011 10 16 0.00 0.00
5:52 am 05:52 Clear 66 18.9 65 18.3 96 96 SE 6 9 29.85 1011 9 14 0.00 0.00
6:52 am 06:52 Sunny 68 20 66 18.9 93 93 SE 7 11 29.87 1011 10 16 0.00 0.00
7:52 am 07:52 Sunny 70 21.1 66 18.9 87 87 SE 12 19 29.86 1011 10 16 0.00 0.00
8:52 am 08:52 Sunny 73 22.8 66 18.9 79 79 SSE 14 22 29.87 1011 10 16 0.00 0.00
9:52 am 09:52 Sunny 73 22.8 66 18.9 79 79 SE 14 22 29.87 1012 10 16 0.00 0.00
10:52 am 10:52 Partly Cloudy 76 24.4 68 20 77 77 SSE 14 22 29.86 1011 10 16 0.00 0.00
11:00 am 11:00 Mostly Cloudy 75 23.9 67 19.4 76 76 SSE 13 20 29.84 1010 10 16 0.00 0.00
11:44 am 11:44 Cloudy with Light Rain 74 23.3 68 20 82 82 S 14 22 29.86 1011 8 13 0.00 0.00
11:52 am 11:52 Cloudy with Rain 72 22.2 67 19.4 84 84 SSE 15 24 29.88 1012 4 6 0.02 0.51
12:52 pm 12:52 Sunny 75 23.9 69 20.6 82 82 SSE 13 20 29.86 1011 10 16 0.03 0.76
1:52 pm 13:52 Sunny 77 25 69 20.6 77 77 SE 14 22 29.83 1010 10 16 0.00 0.00
2:52 pm 14:52 Cloudy with Heavy Rain 72 22.2 69 20.6 91 91 S 13 20 29.83 1010 2 3 0.04 1.02
3:03 pm 15:03 Cloudy with Light Rain 71 21.7 68 20 90 90 SSW 12 19 29.83 1010 10 16 0.05 1.27
3:35 pm 15:35 Mostly Cloudy with Thunderstorms 69 20.6 67 19.4 93 93 S 6 9 29.82 1010 6 10 0.05 1.27
3:52 pm 15:52 Cloudy with Light Rain 70 21.1 67 19.4 90 90 ESE 7 11 29.84 1010 10 16 0.07 1.78
4:09 pm 16:09 Cloudy with Nearby Thunderstorms 69 20.6 67 19.4 93 93 ESE 12 19 29.83 1010 7 11 0.02 0.51
4:30 pm 16:30 Mostly Cloudy with Light Rain 69 20.6 67 19.4 93 93 SSE 9 15 29.82 1010 10 16 0.04 1.02
4:52 pm 16:52 Mostly Cloudy with Light Rain 72 22.2 68 20 87 87 S 7 11 29.81 1010 10 16 0.04 1.02
5:52 pm 17:52 Mostly Sunny 72 22.2 67 19.4 84 84 WSW 3 6 29.80 1009 10 16 0.00 0.00
6:52 pm 18:52 Sunny 72 22.2 66 18.9 82 82 Calm 29.80 1009 10 16 0.00 0.00
7:52 pm 19:52 Sunny 70 21.1 68 20 93 93 NE 6 9 29.81 1009 10 16 0.00 0.00
8:52 pm 20:52 Clear 68 20 67 19.4 96 96 NE 5 7 29.81 1010 10 16 0.00 0.00
9:52 pm 21:52 Mostly Clear 69 20.6 66 18.9 90 90 NE 7 11 29.82 1010 10 16 0.00 0.00
10:52 pm 22:52 Mostly Clear 68 20 65 18.3 90 90 ENE 12 19 29.80 1009 10 16 0.00 0.00
11:52 pm 23:52 Mostly Cloudy 68 20 66 18.9 93 93 E 8 13 29.79 1009 10 16 0.00 0.00

Powered by AerisWeather